TimeCST,TemperatureF,Dew PointF,Humidity,Sea Level PressureIn,VisibilityMPH,Wind Direction,Wind SpeedMPH,Gust SpeedMPH,PrecipitationIn,Events,Conditions,WindDirDegrees,DateUTC
12:15 AM,24.6,17.2,74,29.77,10.0,WNW,25.3,29.9,N/A,,Clear,300,2013-01-12 06:15:00
12:35 AM,24.4,17.4,75,29.79,10.0,WNW,20.7,29.9,N/A,,Scattered Clouds,300,2013-01-12 06:35:00
12:55 AM,24.1,16.0,71,29.81,10.0,WNW,19.6,26.5,N/A,,Scattered Clouds,300,2013-01-12 06:55:00
1:15 AM,23.5,15.8,72,29.82,10.0,WNW,20.7,28.8,N/A,,Scattered Clouds,300,2013-01-12 07:15:00
1:35 AM,23.5,15.3,71,29.84,10.0,WNW,20.7,32.2,N/A,,Clear,300,2013-01-12 07:35:00
1:55 AM,23.0,15.4,73,29.85,10.0,WNW,16.1,26.5,N/A,,Scattered Clouds,290,2013-01-12 07:55:00
2:15 AM,23.0,15.1,72,29.87,10.0,WNW,19.6,26.5,N/A,,Mostly Cloudy,290,2013-01-12 08:15:00
2:35 AM,22.6,13.8,69,29.90,10.0,WNW,15.0,19.6,N/A,,Scattered Clouds,300,2013-01-12 08:35:00
2:55 AM,22.6,13.6,68,29.91,10.0,WNW,11.5,21.9,N/A,,Scattered Clouds,300,2013-01-12 08:55:00
3:15 AM,22.6,13.3,67,29.92,10.0,WNW,15.0,26.5,N/A,,Overcast,300,2013-01-12 09:15:00
3:35 AM,21.6,11.3,65,29.93,10.0,WNW,17.3,23.0,N/A,,Scattered Clouds,300,2013-01-12 09:35:00
3:55 AM,20.8,11.3,67,29.94,10.0,WNW,13.8,-,N/A,,Clear,300,2013-01-12 09:55:00
4:15 AM,20.3,12.0,70,29.94,10.0,WNW,11.5,-,N/A,,Clear,290,2013-01-12 10:15:00
4:35 AM,20.1,11.1,68,29.95,10.0,WNW,10.4,13.8,N/A,,Clear,290,2013-01-12 10:35:00
4:55 AM,19.9,11.7,70,29.96,10.0,West,11.5,-,N/A,,Clear,280,2013-01-12 10:55:00
5:15 AM,19.8,11.1,69,29.96,10.0,WNW,9.2,-,N/A,,Clear,300,2013-01-12 11:15:00
5:35 AM,19.0,12.0,74,29.97,10.0,West,5.8,-,N/A,,Clear,270,2013-01-12 11:35:00
5:55 AM,19.2,11.1,71,29.98,10.0,West,12.7,-,N/A,,Clear,270,2013-01-12 11:55:00
6:15 AM,18.9,10.8,71,29.99,10.0,WNW,15.0,-,N/A,,Clear,290,2013-01-12 12:15:00
6:35 AM,18.3,9.3,68,29.99,10.0,WNW,10.4,-,N/A,,Clear,300,2013-01-12 12:35:00
6:55 AM,17.6,10.4,73,30.00,10.0,WNW,8.1,-,N/A,,Scattered Clouds,290,2013-01-12 12:55:00
7:15 AM,17.6,10.0,72,30.01,10.0,West,11.5,-,N/A,,Scattered Clouds,280,2013-01-12 13:15:00
7:35 AM,17.1,10.0,74,30.03,10.0,West,8.1,-,N/A,,Clear,270,2013-01-12 13:35:00
7:55 AM,16.7,8.4,70,30.04,10.0,WNW,11.5,-,N/A,,Clear,290,2013-01-12 13:55:00
8:15 AM,16.7,8.8,71,30.05,10.0,WNW,8.1,-,N/A,,Clear,290,2013-01-12 14:15:00
8:35 AM,17.2,8.1,67,30.06,10.0,WNW,13.8,-,N/A,,Clear,290,2013-01-12 14:35:00
8:55 AM,17.6,8.1,66,30.06,10.0,WNW,12.7,-,N/A,,Clear,290,2013-01-12 14:55:00
9:15 AM,17.8,7.5,64,30.07,10.0,WNW,11.5,-,N/A,,Clear,290,2013-01-12 15:15:00
9:35 AM,18.0,8.4,66,30.08,10.0,WNW,16.1,19.6,N/A,,Clear,290,2013-01-12 15:35:00
9:55 AM,18.3,7.3,62,30.09,10.0,WNW,18.4,23.0,N/A,,Clear,300,2013-01-12 15:55:00
10:15 AM,18.5,7.7,63,30.09,10.0,WNW,15.0,-,N/A,,Clear,290,2013-01-12 16:15:00
10:35 AM,18.5,7.3,62,30.10,10.0,West,16.1,20.7,N/A,,Clear,280,2013-01-12 16:35:00
10:55 AM,19.2,7.9,61,30.10,10.0,West,19.6,24.2,N/A,,Clear,280,2013-01-12 16:55:00
11:15 AM,19.8,8.1,61,30.10,10.0,West,18.4,23.0,N/A,,Clear,280,2013-01-12 17:15:00
11:55 AM,20.3,8.2,60,30.09,10.0,WNW,15.0,23.0,N/A,,Clear,290,2013-01-12 17:55:00
12:15 PM,20.5,7.9,58,30.07,10.0,NW,15.0,23.0,N/A,,Clear,310,2013-01-12 18:15:00
12:35 PM,21.0,8.2,58,30.05,10.0,NW,18.4,25.3,N/A,,Clear,310,2013-01-12 18:35:00
12:55 PM,21.0,8.4,58,30.04,10.0,NW,18.4,27.6,N/A,,Clear,310,2013-01-12 18:55:00
1:15 PM,21.7,9.7,60,30.05,10.0,NW,13.8,24.2,N/A,,Clear,310,2013-01-12 19:15:00
1:35 PM,21.0,8.6,59,30.04,10.0,NW,17.3,21.9,N/A,,Clear,310,2013-01-12 19:35:00
1:55 PM,21.0,8.4,58,30.04,10.0,NW,18.4,26.5,N/A,,Clear,310,2013-01-12 19:55:00
2:15 PM,21.2,8.8,59,30.05,10.0,NW,18.4,25.3,N/A,,Clear,310,2013-01-12 20:15:00
2:35 PM,21.2,9.0,59,30.06,10.0,NW,15.0,25.3,N/A,,Clear,310,2013-01-12 20:35:00
2:55 PM,20.8,8.2,58,30.06,10.0,NW,16.1,21.9,N/A,,Scattered Clouds,310,2013-01-12 20:55:00
3:15 PM,20.3,9.0,62,30.06,10.0,NW,16.1,21.9,N/A,,Mostly Cloudy,320,2013-01-12 21:15:00
3:35 PM,19.9,8.8,62,30.05,10.0,NW,17.3,-,N/A,,Scattered Clouds,320,2013-01-12 21:35:00
3:55 PM,19.4,8.4,62,30.08,10.0,NW,16.1,20.7,N/A,,Scattered Clouds,320,2013-01-12 21:55:00
4:15 PM,19.6,8.2,61,30.07,10.0,NNW,13.8,21.9,N/A,,Scattered Clouds,330,2013-01-12 22:15:00
4:35 PM,19.2,8.2,62,30.09,10.0,NW,12.7,-,N/A,,Mostly Cloudy,320,2013-01-12 22:35:00
4:55 PM,18.7,8.4,64,30.08,10.0,NNW,15.0,19.6,N/A,,Mostly Cloudy,330,2013-01-12 22:55:00
5:15 PM,18.1,8.1,65,30.10,10.0,NW,13.8,-,N/A,,Overcast,320,2013-01-12 23:15:00
5:35 PM,17.6,8.1,66,30.10,10.0,NW,15.0,-,N/A,,Mostly Cloudy,310,2013-01-12 23:35:00
5:55 PM,17.1,7.2,65,30.10,10.0,NW,13.8,19.6,N/A,,Scattered Clouds,320,2013-01-12 23:55:00
6:15 PM,16.7,6.6,65,30.11,10.0,NW,12.7,-,N/A,,Scattered Clouds,320,2013-01-13 00:15:00
6:35 PM,16.3,7.7,69,30.11,10.0,NNW,9.2,-,N/A,,Clear,330,2013-01-13 00:35:00
7:15 PM,16.9,7.3,66,30.13,10.0,NW,5.8,-,N/A,,Scattered Clouds,320,2013-01-13 01:15:00
7:35 PM,17.1,7.3,66,30.13,10.0,NNW,6.9,-,N/A,,Scattered Clouds,330,2013-01-13 01:35:00
7:55 PM,16.7,7.9,68,30.13,10.0,NW,8.1,-,N/A,,Mostly Cloudy,320,2013-01-13 01:55:00
8:15 PM,16.7,7.2,66,30.13,10.0,NW,10.4,-,N/A,,Overcast,320,2013-01-13 02:15:00
8:35 PM,16.3,7.7,69,30.12,10.0,NW,11.5,17.3,N/A,,Overcast,320,2013-01-13 02:35:00
8:55 PM,16.3,9.0,73,30.12,10.0,NNW,16.1,-,N/A,Snow,Light Snow,340,2013-01-13 02:55:00
9:15 PM,14.9,7.7,73,30.13,10.0,NNW,10.4,-,N/A,,Mostly Cloudy,340,2013-01-13 03:15:00
9:35 PM,14.0,6.8,73,30.12,10.0,NNW,11.5,-,N/A,,Scattered Clouds,340,2013-01-13 03:35:00
9:55 PM,13.1,5.9,73,30.12,10.0,NNW,11.5,-,N/A,,Clear,340,2013-01-13 03:55:00
10:15 PM,12.9,5.7,73,30.12,10.0,NNW,9.2,-,N/A,,Clear,330,2013-01-13 04:15:00
10:35 PM,12.4,4.1,69,30.12,10.0,NNW,12.7,20.7,N/A,,Clear,330,2013-01-13 04:35:00
10:55 PM,11.8,4.8,73,30.13,10.0,NNW,9.2,-,N/A,,Clear,340,2013-01-13 04:55:00
11:15 PM,11.3,4.6,75,30.13,10.0,NNW,10.4,-,N/A,,Clear,330,2013-01-13 05:15:00
11:35 PM,11.1,4.8,76,30.14,10.0,NNW,8.1,-,N/A,,Scattered Clouds,330,2013-01-13 05:35:00
11:55 PM,11.1,5.0,76,30.14,10.0,NNW,9.2,-,N/A,,Mostly Cloudy,330,2013-01-13 05:55:00